Theta_e
307 304 308 310 309 307 307 306 305 305 305 305 306 306 306 307 307 307 307 308 306 306 307 305 305 304 305 305 306 307 307 310 313 314 318 320 308 310 315 314 325 337 333 326 326 330 332 331 331 332 336 338 340 345 350 352 355 358 363 365 362 364 367 370 371 367 366 367 366 365 364 366 367 364 362 362 363 363 364 364 362 356 352 352 352 351 350 351
311 308 309 311 311 310 309 308 307 306 305 305 306 306 306 307 307 307 308 308 307 307 309 308 305 305 305 305 306 307 310 312 315 318 322 317 312 312 313 317 329 337 332 329 329 327 330 331 328 328 331 334 335 340 347 350 354 358 365 366 364 369 370 370 371 367 366 367 365 365 365 366 366 364 363 366 365 363 365 366 362 356 353 353 351 350 351 352
312 311 311 311 311 311 310 309 308 307 306 305 305 306 306 306 307 307 307 308 308 308 312 310 308 307 306 306 307 309 312 316 324 332 328 316 313 313 316 318 330 338 330 327 326 321 325 327 326 327 330 333 334 337 343 350 356 358 362 366 367 368 366 368 371 369 368 365 364 366 365 365 364 364 364 367 365 365 366 365 361 356 355 353 350 351 351 352
312 312 311 311 311 311 310 309 308 307 307 306 305 305 306 306 306 307 308 309 308 310 312 312 310 309 307 308 309 312 315 323 335 334 327 317 311 316 320 316 323 332 327 323 324 321 321 323 325 328 331 333 333 335 339 346 356 358 359 364 365 362 362 368 369 366 364 361 365 365 365 366 363 364 365 366 366 367 365 362 358 355 354 353 351 351 351 352
312 311 311 311 311 311 310 310 308 308 307 306 306 305 306 306 306 307 308 309 309 311 312 312 312 310 309 310 312 315 319 331 332 327 326 315 312 319 320 317 319 323 323 320 321 323 320 321 326 329 332 335 335 336 338 341 351 358 358 359 358 357 363 368 364 362 360 361 365 365 367 366 362 364 364 364 367 369 365 362 359 353 352 352 350 350 351 350
311 311 311 311 311 311 310 310 308 308 307 307 306 305 305 305 306 306 307 309 309 311 312 312 311 312 311 312 314 317 323 328 324 325 326 315 313 321 320 321 321 320 321 319 319 320 319 321 325 330 335 336 337 339 340 338 345 355 355 354 355 354 361 366 359 359 361 363 365 365 365 364 364 367 364 364 367 366 364 363 360 353 350 352 350 350 350 349
311 311 311 311 311 311 310 310 308 308 307 307 307 305 305 305 306 307 307 308 309 310 312 312 311 312 312 314 318 320 325 329 322 323 326 318 315 321 322 321 322 320 320 319 318 318 319 321 323 328 334 338 340 339 338 338 342 350 352 351 352 352 360 363 359 360 362 363 365 364 363 363 366 368 364 364 364 361 362 363 359 353 350 351 350 349 349 349
311 311 311 311 311 310 309 309 309 308 308 307 307 306 305 306 306 307 307 308 309 309 310 312 312 313 311 313 319 322 329 332 324 325 324 319 316 319 322 321 321 320 320 319 318 317 319 322 323 326 331 337 339 337 339 341 341 346 349 348 346 351 359 362 361 360 360 362 363 362 363 365 366 366 365 364 361 359 360 360 358 356 351 350 350 349 349 349
310 311 311 310 310 309 309 309 309 309 308 308 307 306 306 305 307 307 308 308 309 309 310 311 313 313 311 313 318 323 329 327 323 325 323 320 318 316 321 322 321 320 320 319 316 317 318 321 323 326 330 332 334 336 339 343 344 344 343 344 341 345 358 361 362 361 360 362 361 364 365 367 366 363 365 363 360 360 359 358 359 358 352 349 350 349 348 348
310 311 310 310 310 309 309 308 308 308 308 308 307 307 306 306 307 307 308 309 310 310 309 311 315 313 311 314 320 326 324 322 324 324 321 322 320 320 322 323 322 320 319 317 316 316 319 321 323 325 328 331 334 336 338 342 344 340 338 340 334 340 358 360 362 362 361 362 361 364 368 367 362 364 368 362 358 360 360 358 358 358 353 349 349 348 348 347
310 310 310 309 309 308 308 308 308 308 308 308 308 307 306 307 308 308 309 309 310 311 309 313 315 312 313 317 322 327 324 321 324 323 322 321 321 322 323 322 322 321 319 318 316 316 318 320 323 327 328 331 334 334 337 339 336 335 335 333 333 347 360 359 361 361 361 362 361 362 366 366 363 367 370 360 356 357 358 358 357 357 354 349 348 348 348 347
310 310 310 309 309 308 308 308 308 309 309 309 309 308 308 308 309 309 310 310 311 311 311 314 314 311 316 320 322 324 321 323 325 323 324 324 322 323 322 321 323 321 321 320 317 316 317 318 321 327 330 330 331 333 335 333 330 333 329 328 346 364 364 359 360 360 361 361 359 360 361 365 365 367 365 357 355 355 355 357 355 355 354 350 347 347 347 346
310 309 309 308 308 307 308 308 309 309 309 310 310 309 310 310 310 311 311 311 312 311 311 315 315 314 321 326 324 319 318 323 325 323 325 325 324 324 322 322 322 321 322 320 318 317 317 318 321 324 327 327 329 331 331 331 330 332 328 330 354 370 364 363 362 358 361 359 358 357 356 363 366 363 361 357 355 355 355 356 354 354 352 350 348 346 348 346
309 309 308 308 308 308 308 309 309 310 310 310 311 311 312 311 312 312 312 312 312 311 312 315 316 319 326 330 325 322 322 324 326 324 325 326 327 327 325 323 322 321 321 319 319 318 317 318 320 322 324 325 326 327 327 331 329 330 330 327 348 364 363 364 361 360 364 359 359 355 352 362 366 361 359 356 356 356 356 355 354 353 351 349 348 347 346 346
309 308 308 308 307 308 308 309 309 310 311 311 312 313 312 313 314 314 313 313 313 311 312 315 317 322 331 334 327 323 322 323 325 323 323 327 331 333 329 326 324 321 320 320 319 319 319 319 320 322 323 324 325 327 329 333 332 333 327 322 337 348 354 365 361 360 366 361 360 354 353 363 363 360 360 356 357 358 355 355 354 353 352 350 349 347 346 346
309 308 308 307 308 308 308 309 310 311 311 312 313 314 314 316 317 315 315 313 313 312 313 319 319 321 332 337 327 323 322 322 322 319 320 325 330 331 329 329 328 324 322 321 320 320 320 320 323 324 324 327 330 332 333 331 334 339 327 321 325 324 341 365 362 358 362 362 362 358 360 368 362 359 360 357 358 358 356 355 354 353 353 351 349 348 346 345
309 308 308 308 308 308 308 310 310 311 312 313 314 315 316 319 317 316 315 314 313 313 316 322 321 321 328 329 325 326 324 321 319 318 318 321 324 324 328 332 330 327 325 322 321 321 321 324 329 332 330 331 334 333 333 328 329 335 329 323 322 321 340 359 359 358 359 362 365 362 365 368 361 360 360 359 358 358 358 356 355 353 352 352 350 349 347 346
309 309 309 309 308 309 309 310 311 311 313 314 314 316 318 318 316 316 315 316 316 317 320 322 323 323 325 323 324 324 323 320 318 318 317 318 319 318 325 329 328 325 323 322 322 322 325 330 333 335 334 331 331 330 330 330 328 329 326 323 322 322 333 346 355 362 359 362 366 362 366 365 360 360 360 359 358 358 359 357 355 354 353 352 350 351 349 347
309 310 310 309 309 309 309 310 311 311 313 315 315 316 319 318 318 318 317 319 322 323 327 328 328 326 322 324 325 322 319 317 316 315 317 318 316 316 319 324 326 325 324 326 327 325 329 335 332 334 335 332 332 330 330 334 331 328 325 323 322 319 321 331 346 357 358 363 366 363 363 363 360 360 359 359 358 359 360 357 356 354 353 353 351 352 350 349
309 310 310 310 310 310 310 311 311 312 314 315 314 315 318 317 320 320 318 322 326 321 323 327 331 330 324 324 324 320 317 314 315 316 316 316 316 316 316 321 328 327 329 332 331 329 332 337 336 334 335 334 332 331 330 332 329 328 326 324 324 321 322 325 330 350 362 361 363 363 362 362 360 359 359 359 359 360 360 359 357 356 355 353 353 353 352 350
309 310 310 310 310 310 311 311 311 313 314 315 315 316 318 316 317 318 316 320 320 316 317 322 326 325 322 321 320 317 314 313 314 315 315 315 317 316 317 324 330 330 331 334 332 331 332 336 336 335 335 334 331 330 330 329 328 327 326 325 324 323 324 326 324 342 361 359 358 361 359 359 358 358 360 359 358 361 360 358 357 357 356 354 353 353 353 351
309 310 310 310 310 311 312 311 312 313 314 315 315 316 316 315 314 314 314 316 316 313 316 317 317 317 316 316 316 315 313 312 313 315 315 316 316 316 320 328 332 332 331 331 332 333 333 334 334 333 332 330 330 329 327 328 329 327 326 323 323 323 324 328 325 332 351 357 358 359 358 360 360 359 361 361 359 360 359 358 356 356 357 356 355 354 354 353
309 309 310 310 311 311 312 312 312 313 314 315 314 315 315 315 315 314 313 315 315 314 315 315 315 315 315 314 314 313 313 312 313 315 315 316 316 316 323 329 330 331 330 330 333 334 334 334 333 332 330 329 330 329 328 329 328 327 326 322 321 323 321 322 325 332 349 356 359 361 361 364 367 363 362 361 360 359 358 358 357 356 356 355 355 354 354 354
309 310 310 311 311 312 312 312 312 313 314 315 315 316 316 316 315 314 314 316 316 315 314 315 315 315 316 314 312 313 313 312 313 314 316 316 317 318 323 328 329 331 330 330 332 332 335 334 332 330 329 330 331 330 329 328 327 327 327 324 322 324 322 321 323 328 339 343 354 365 359 359 367 365 364 363 360 360 359 358 357 355 354 354 355 354 353 353
309 310 310 310 311 312 312 312 312 312 314 315 315 316 316 316 315 314 317 320 319 318 316 313 314 315 314 313 311 313 312 313 312 315 318 317 318 320 321 323 327 330 330 329 330 332 333 331 327 329 329 329 328 331 330 327 326 326 327 327 325 325 326 324 322 321 321 323 340 358 350 352 365 365 365 364 362 362 359 359 358 356 354 354 354 354 353 353
310 310 311 311 311 312 313 315 313 312 315 316 316 317 316 316 316 314 319 323 321 320 318 312 313 314 312 312 312 312 313 313 313 315 317 317 317 319 318 318 323 327 328 327 329 330 330 329 326 328 329 328 329 329 328 328 325 323 327 328 325 326 325 322 322 318 315 320 337 351 346 350 359 361 364 365 364 363 360 359 358 356 355 354 353 353 353 353
310 311 311 312 312 311 315 316 312 312 317 317 315 316 315 316 315 313 321 328 323 317 316 312 311 312 312 311 311 313 314 314 314 315 316 317 316 316 318 318 319 320 322 323 325 326 326 326 326 327 327 328 329 326 327 329 324 323 328 326 324 325 322 321 321 316 319 331 340 340 346 352 355 358 363 366 365 364 362 360 358 356 356 354 354 352 352 352
311 312 312 313 313 311 312 313 312 314 317 316 315 316 316 316 315 314 321 326 321 316 313 311 311 311 311 311 311 313 314 314 315 315 314 315 316 316 318 318 319 319 319 321 323 323 321 322 327 328 326 326 326 327 327 326 324 325 326 324 323 323 322 324 321 318 326 339 338 333 337 345 348 357 364 364 366 365 364 362 358 358 355 355 354 352 351 352
312 313 313 313 313 312 312 312 312 314 315 314 315 316 316 314 316 322 324 320 316 313 313 312 311 311 312 312 312 314 313 313 315 315 315 315 314 315 317 318 319 318 316 317 320 319 318 321 325 325 324 325 326 326 326 325 326 326 324 324 324 323 328 329 326 323 325 334 336 332 330 331 334 348 361 362 362 363 364 363 358 358 357 355 355 352 351 352
313 314 314 314 314 313 313 312 312 314 314 314 316 316 316 318 326 330 324 317 314 312 312 312 312 312 313 313 313 313 313 314 315 316 315 315 314 314 315 316 316 316 317 317 317 317 317 319 323 322 323 325 324 325 324 324 326 323 324 324 321 326 333 337 343 333 320 325 333 329 326 324 321 335 355 361 360 363 363 363 360 358 357 356 355 354 352 352
314 315 315 315 314 313 313 314 314 313 314 315 316 316 317 324 334 333 322 315 314 313 313 313 314 314 313 314 314 313 313 314 314 315 314 314 315 313 314 316 316 319 324 322 315 316 317 315 318 321 322 322 320 323 323 323 323 322 326 324 319 326 329 328 335 326 314 323 333 327 321 317 315 326 350 360 360 362 360 361 361 359 358 357 355 354 353 352
316 317 316 315 314 314 315 317 315 314 316 316 316 320 326 328 327 326 321 316 314 313 313 315 315 314 314 315 314 313 314 313 313 314 313 314 314 312 312 314 313 315 320 319 315 317 319 316 317 318 320 319 318 322 323 322 322 320 326 323 316 322 323 320 325 322 318 323 326 324 317 313 315 324 344 358 358 358 359 358 358 358 358 358 356 356 354 353
317 318 316 314 315 316 316 317 316 316 318 316 317 326 334 330 322 319 318 315 313 314 314 315 314 313 315 315 313 313 313 312 313 314 314 314 314 313 312 312 311 311 315 317 316 317 318 317 318 317 319 318 316 318 318 319 321 320 322 320 317 319 319 319 325 323 320 321 319 321 318 314 317 324 339 356 355 355 356 355 356 355 357 356 356 356 355 354
318 319 318 316 316 317 318 318 318 319 318 316 321 326 324 322 320 318 316 313 313 315 313 313 312 312 313 312 312 312 312 313 313 314 314 313 313 313 312 311 311 311 314 319 318 316 317 316 318 317 316 316 315 315 313 316 320 322 324 323 321 324 322 322 325 321 319 321 319 317 317 317 317 323 336 341 344 352 353 354 354 353 355 355 355 357 356 355
318 319 319 318 317 317 317 318 318 319 318 316 319 319 316 316 317 316 314 313 313 313 311 311 311 312 312 311 312 312 313 313 311 312 312 312 312 312 312 312 312 311 313 318 317 316 317 316 317 317 315 315 316 315 314 316 318 323 325 320 317 323 327 323 323 325 323 321 320 318 319 325 325 326 335 330 331 344 350 354 356 352 353 355 356 358 357 356
319 319 320 319 318 316 315 317 318 317 319 319 316 314 314 313 312 312 313 312 311 311 312 314 311 311 312 312 312 312 313 312 312 314 313 311 311 311 311 311 311 311 313 315 316 315 316 317 315 315 316 315 315 315 315 315 318 323 320 316 315 318 325 321 319 328 325 316 321 322 318 327 329 324 332 335 334 339 343 349 353 352 354 354 357 358 357 356
320 321 321 319 317 315 315 317 316 316 321 322 316 314 314 311 310 311 312 311 311 310 313 315 313 311 312 312 312 311 313 313 313 315 313 312 313 311 311 311 311 312 312 313 315 313 313 317 316 313 316 316 313 315 316 313 315 320 316 316 319 317 323 325 321 325 323 317 323 323 316 323 326 322 331 344 343 342 341 342 344 350 354 353 356 357 357 356
320 321 321 318 315 314 316 316 313 319 325 323 320 317 313 311 311 310 310 311 310 310 312 314 313 312 312 313 313 310 312 314 313 314 314 313 313 311 311 312 312 312 312 313 315 314 312 316 317 313 314 315 314 315 318 314 313 316 315 318 321 317 320 325 320 320 322 321 323 321 319 323 325 327 333 340 345 346 345 342 339 343 351 354 355 356 358 357
320 324 322 315 315 315 315 314 316 324 324 317 320 320 313 311 311 310 311 311 310 311 312 313 313 313 312 313 313 311 311 312 312 314 315 313 313 312 311 311 312 312 312 313 315 316 315 315 317 316 313 314 316 316 316 315 313 316 315 315 318 319 318 319 319 321 322 324 324 321 322 325 330 335 333 334 344 348 346 347 343 339 344 351 353 355 357 357
321 328 322 313 314 316 314 314 320 324 320 315 317 317 311 311 310 310 311 311 310 312 312 312 314 314 313 312 313 312 311 312 313 313 314 313 313 313 311 311 312 312 313 314 313 316 320 318 317 318 316 315 316 316 315 314 314 315 316 313 314 318 318 318 319 319 321 327 329 326 326 330 337 337 327 329 343 348 345 347 346 341 340 345 350 353 356 357
320 325 319 313 313 315 315 318 322 321 318 315 314 313 312 312 310 311 312 311 311 311 310 311 312 312 313 313 313 313 312 312 313 314 313 312 313 315 312 311 311 312 315 317 314 315 321 320 319 320 318 315 316 316 314 315 315 314 314 314 312 314 318 322 324 323 321 322 324 325 324 330 340 332 322 328 340 346 344 342 345 346 343 343 347 350 354 356
325 321 315 313 313 314 314 318 322 320 316 313 311 312 314 313 310 311 312 312 311 311 311 311 311 310 311 312 312 313 313 313 313 314 314 313 312 313 312 311 312 312 315 318 316 317 321 320 318 318 318 315 314 315 313 314 315 313 312 312 312 313 314 319 324 325 322 319 325 330 326 331 342 329 319 329 341 342 341 339 341 344 345 346 348 349 353 354
333 326 317 312 312 313 313 316 319 317 313 311 309 310 311 311 310 310 312 313 312 311 311 311 312 312 311 311 311 312 314 314 313 314 315 314 313 313 313 313 312 312 317 319 317 318 320 320 317 318 321 318 314 316 316 313 312 313 312 311 311 312 312 314 317 319 322 324 329 331 324 328 337 326 321 334 342 338 338 338 338 340 343 348 352 354 355 353
330 328 325 316 311 313 315 316 318 315 313 311 309 309 309 309 311 312 312 314 314 312 313 312 312 313 312 311 312 312 313 314 314 315 316 316 316 314 314 315 313 313 317 319 318 316 317 321 321 320 320 320 321 325 322 314 311 312 311 310 311 311 311 313 316 322 328 324 324 326 324 326 327 322 329 340 342 339 338 336 337 337 338 343 348 354 357 357
326 326 326 320 312 312 314 316 318 317 315 314 311 310 310 309 310 312 312 313 314 314 315 314 313 314 314 313 313 313 314 315 315 316 317 317 317 315 315 315 314 315 317 318 320 318 317 322 326 323 318 317 323 327 321 314 312 312 310 310 310 310 311 314 316 325 329 323 321 326 325 324 322 325 338 343 340 341 339 334 335 335 334 337 340 344 348 351
326 323 322 323 317 313 314 315 316 317 318 319 316 311 310 310 310 312 313 313 313 314 315 314 313 314 315 316 316 314 314 315 317 318 318 317 316 314 315 316 316 317 317 315 318 322 322 323 326 328 323 322 325 324 318 315 313 311 310 310 310 310 312 313 316 321 322 319 326 333 326 322 325 332 340 341 339 342 341 336 334 333 332 333 334 337 338 340
325 320 318 322 320 316 316 314 314 317 317 318 316 311 310 311 311 312 313 313 314 316 317 315 314 315 316 317 317 317 316 317 317 318 317 315 316 316 318 318 317 317 316 314 319 326 325 321 319 320 320 319 319 317 313 312 312 310 311 311 310 310 311 313 314 317 317 317 326 338 331 321 325 336 341 338 337 339 340 338 335 331 331 330 330 333 334 334
321 319 316 317 317 318 318 313 313 316 316 318 318 313 311 312 312 312 312 314 316 317 319 316 314 316 317 317 318 318 319 320 318 317 316 315 316 319 320 318 316 317 315 314 320 323 323 320 315 314 315 314 312 313 312 311 311 311 313 312 311 311 311 312 313 315 315 315 320 326 323 320 327 339 340 334 334 337 336 336 335 330 330 330 329 330 331 331
322 322 321 318 317 317 315 314 315 314 316 323 322 314 311 312 312 311 312 316 316 316 320 318 314 317 318 319 321 319 318 319 317 316 316 314 314 318 319 318 316 317 315 313 317 319 321 323 318 313 316 316 314 314 313 312 312 313 313 314 313 311 310 311 312 313 314 316 318 317 319 327 334 337 336 331 330 332 331 331 332 331 329 329 329 329 329 330
322 321 323 325 323 321 319 319 320 316 315 322 321 315 313 313 312 312 312 315 315 313 317 317 315 317 319 322 323 319 317 318 316 315 315 312 314 318 317 315 315 317 317 313 314 316 316 320 320 317 317 317 315 314 313 313 314 313 313 314 312 312 313 312 311 311 313 316 319 317 320 331 335 333 334 331 327 328 328 329 330 330 328 328 328 328 329 328
316 315 319 325 325 321 320 319 320 318 316 319 319 316 315 312 311 312 312 313 314 313 316 317 316 317 320 322 321 316 317 318 314 314 314 311 313 316 316 315 314 314 316 315 315 317 316 318 323 322 317 317 316 314 314 315 313 312 314 314 313 313 315 316 316 319 320 320 321 319 322 331 333 330 331 330 326 327 327 326 328 328 327 326 327 327 328 328
316 315 316 323 322 317 317 317 319 319 315 315 317 316 314 313 312 314 314 313 314 314 315 319 321 319 317 317 316 313 316 317 312 312 313 311 312 314 314 316 315 312 313 314 314 318 320 319 319 319 318 319 318 315 317 316 312 315 317 314 312 313 315 322 329 330 328 326 325 324 326 329 329 327 330 330 326 326 326 325 326 327 327 326 325 326 326 327
Wind_Speed
21 21 21 21 22 22 22 22 22 21 18 16 14 15 16 17 18 19 19 18 16 15 14 12 9 8 9 9 9 10 9 8 8 7 10 12 14 13 12 15 15 17 19 19 19 16 10 7 9 9 7 4 2 1 4 5 3 2 1 2 2 2 3 3 3 3 4 5 7 7 5 5 7 4 2 1 3 4 4 5 2 4 9 13 19 28 30 28
20 21 21 21 22 23 23 22 22 22 21 19 16 14 15 16 17 18 18 18 16 15 13 11 9 7 8 8 8 8 8 8 9 11 15 12 8 14 17 18 18 21 21 21 23 20 11 7 9 8 5 3 2 3 3 4 5 3 1 1 3 3 3 3 3 4 4 6 8 6 5 6 7 6 3 3 4 3 5 4 3 9 13 16 23 28 27 28
20 21 21 21 22 23 23 23 23 22 22 21 19 17 15 15 16 17 17 17 16 13 11 10 8 7 6 7 7 6 7 6 6 8 8 7 13 18 21 22 20 21 21 21 23 21 14 11 12 9 4 2 2 4 4 4 5 4 2 2 4 4 3 3 2 3 5 8 10 6 5 6 5 5 3 4 5 3 4 5 7 12 15 17 20 23 26 27
20 21 22 22 22 24 24 24 23 23 22 21 20 19 18 16 15 15 15 16 15 10 9 9 8 6 5 5 4 5 5 3 2 5 4 2 17 23 25 25 22 21 17 16 18 17 12 11 11 7 4 3 2 3 4 4 4 3 4 5 4 3 3 3 2 4 7 8 9 7 6 6 4 3 3 6 7 2 4 7 9 14 19 20 18 20 24 25
21 22 23 23 23 24 24 24 24 23 23 22 20 19 19 18 15 14 13 14 13 8 7 9 9 6 4 4 4 5 4 1 2 4 3 3 19 26 26 24 21 22 17 13 15 14 9 8 7 3 2 3 2 2 4 6 5 2 6 9 5 2 2 3 2 6 8 6 7 9 7 6 5 3 5 7 6 2 3 5 7 14 19 20 20 19 21 21
23 23 23 23 23 25 24 25 25 24 24 22 21 20 19 18 17 14 12 12 12 7 6 7 8 7 5 4 4 4 1 1 4 3 2 5 20 27 25 22 19 22 20 14 14 12 7 5 5 4 2 2 4 4 4 5 6 5 5 8 8 6 5 2 4 6 7 8 9 9 6 7 6 4 5 6 3 1 3 2 4 11 18 22 21 18 18 18
24 24 24 24 24 25 25 25 26 25 25 23 22 21 20 18 17 15 11 10 10 7 5 7 8 7 6 4 3 3 1 4 5 5 5 7 20 26 24 20 18 21 22 15 11 9 6 6 5 5 4 2 4 6 5 4 7 7 7 8 8 8 8 5 6 6 7 8 8 7 8 9 9 6 6 6 3 3 4 4 4 10 19 21 19 17 16 17
25 25 25 25 25 26 26 26 26 26 26 24 23 22 20 18 16 15 11 9 9 7 5 6 9 7 5 3 2 2 2 6 5 8 8 10 19 24 22 19 18 20 21 17 12 9 7 7 7 5 4 5 4 4 5 5 6 9 10 10 7 7 8 7 7 7 7 6 6 8 9 8 8 7 7 7 4 4 5 6 6 9 17 18 16 17 15 15
26 26 26 26 26 27 27 27 27 27 26 25 24 22 21 18 15 14 11 9 8 6 4 6 8 5 4 1 1 1 3 4 7 10 10 13 19 23 22 19 20 21 18 16 14 10 8 7 8 6 4 5 4 4 5 5 5 8 10 10 9 7 8 10 9 9 8 5 6 9 7 5 6 7 5 4 5 5 6 9 7 8 16 16 15 16 14 15
27 27 27 27 27 27 27 28 28 28 27 26 25 23 21 18 15 13 10 9 7 5 3 4 6 3 3 1 3 2 2 3 8 12 12 15 20 24 23 20 22 22 16 13 15 13 9 7 7 5 1 2 4 5 5 6 4 6 7 9 11 8 9 11 10 9 7 6 7 8 7 5 5 4 3 4 6 6 7 11 8 8 16 16 15 14 13 15
27 27 28 28 28 28 28 29 29 29 28 27 26 23 21 18 15 12 9 9 8 4 2 2 3 2 3 2 3 3 2 4 10 13 12 16 21 24 24 22 23 24 17 11 15 19 13 7 5 3 1 1 3 5 5 5 4 6 6 8 10 5 8 11 11 10 7 5 6 8 8 4 2 1 3 8 8 7 9 12 9 8 13 14 15 14 11 14
28 28 28 28 29 29 29 30 30 30 29 28 25 23 21 18 14 11 9 8 7 2 3 0 1 5 3 2 4 7 2 3 5 10 12 15 18 18 19 23 24 26 22 12 14 22 17 9 4 2 2 1 3 4 4 4 5 7 6 5 5 3 7 8 8 9 7 5 7 9 7 2 4 3 6 12 10 9 10 9 9 7 9 11 13 13 10 14
28 28 29 29 29 30 31 31 31 32 30 28 25 23 21 18 14 10 9 7 4 3 4 2 4 6 3 1 7 8 2 2 2 7 13 16 15 14 17 21 22 25 26 19 16 21 19 12 6 3 3 3 3 3 5 6 5 6 4 1 2 4 2 6 5 8 6 4 10 8 2 5 8 5 8 13 12 13 11 9 10 8 8 10 11 11 11 15
29 29 29 29 30 31 32 32 33 33 31 28 25 23 22 19 14 9 8 6 4 5 5 4 5 6 3 5 8 3 2 4 3 8 14 18 13 10 16 19 20 22 25 22 14 12 18 14 6 4 4 3 4 5 7 5 3 3 3 1 3 1 3 5 5 9 6 4 11 5 2 5 7 7 9 13 13 15 13 11 13 12 10 11 10 12 12 14
29 29 29 30 30 32 33 33 34 33 31 28 24 23 22 17 11 8 7 6 6 8 7 4 6 5 2 7 7 2 2 2 6 12 15 20 14 7 14 19 19 22 22 20 11 7 16 15 4 3 4 4 4 5 5 3 3 1 1 2 0 2 3 4 5 10 7 4 10 5 2 3 5 9 11 12 14 14 14 13 15 15 14 13 11 12 12 13
29 29 30 30 31 33 34 34 34 34 31 26 23 23 17 11 5 3 4 6 8 9 6 4 5 5 2 4 5 2 3 3 7 12 14 20 18 10 14 17 14 17 17 15 12 8 13 12 4 3 4 4 3 4 3 3 4 3 1 2 1 1 2 3 4 9 5 4 9 7 2 2 3 10 11 13 15 14 15 16 17 17 15 14 11 11 12 12
29 30 30 31 32 33 34 34 34 34 29 24 24 19 11 7 4 7 8 8 9 9 5 4 4 3 1 6 5 3 4 4 6 9 12 18 20 14 12 11 6 11 10 8 11 8 6 7 3 3 3 3 3 2 1 3 3 3 2 1 2 1 3 3 4 8 5 2 8 9 5 4 3 10 12 13 16 15 16 17 18 18 15 13 11 12 13 13
30 31 31 31 32 32 33 33 33 32 26 23 23 14 7 9 10 13 15 13 9 6 3 2 3 1 2 5 4 5 10 9 7 8 11 15 17 14 12 8 4 8 5 2 6 5 3 2 2 2 2 3 4 3 3 4 3 2 0 1 3 2 2 3 3 7 9 5 7 9 9 9 3 9 12 13 15 16 15 16 16 17 17 14 13 13 13 15
32 32 31 31 31 31 32 31 32 30 22 22 21 8 6 10 8 9 11 11 5 2 0 1 3 1 2 4 6 10 14 9 5 6 11 12 11 10 8 6 5 8 5 1 2 4 3 1 1 4 4 4 5 4 6 6 5 4 2 2 2 3 1 4 2 6 13 9 8 10 11 11 7 8 12 12 14 14 13 13 13 14 15 14 13 12 13 15
32 32 31 31 30 30 31 29 30 26 19 22 20 6 4 5 3 2 1 4 3 4 4 3 5 2 3 5 7 10 14 9 4 4 9 11 9 6 2 3 5 4 4 4 2 3 4 3 4 6 5 5 5 5 7 6 4 2 2 2 3 3 3 4 4 5 12 9 10 14 12 12 10 9 12 12 13 14 12 13 13 13 13 13 14 14 15 15
32 30 31 31 30 30 29 28 28 21 16 19 17 6 1 2 2 4 5 3 5 7 6 6 7 6 7 8 9 7 7 4 3 2 6 9 8 7 0 1 5 2 3 5 2 1 3 5 7 6 6 6 5 5 6 5 5 3 3 3 4 3 4 5 5 5 10 8 8 11 12 10 7 7 10 12 15 16 15 16 16 16 14 12 14 15 15 13
30 30 31 29 29 29 27 27 24 15 13 15 11 4 1 5 6 6 5 4 7 6 7 7 5 7 9 13 17 9 1 2 4 4 5 8 5 5 1 3 6 3 2 3 3 2 3 6 7 6 5 4 4 4 5 5 5 4 3 3 3 3 2 6 7 4 8 8 4 6 8 5 3 5 9 13 16 15 14 15 16 17 15 13 14 14 14 13
30 30 30 28 29 28 25 26 19 10 13 13 6 4 5 12 13 7 3 2 6 4 5 5 4 5 6 9 13 5 3 4 2 4 4 8 3 4 4 4 6 4 2 4 4 4 4 6 7 6 4 4 5 5 4 4 4 4 4 3 3 2 2 3 6 3 4 5 1 4 5 2 4 5 7 11 12 9 10 11 10 13 15 15 16 14 14 15
30 31 30 29 29 26 25 23 12 8 15 10 2 6 12 15 15 10 4 1 4 5 5 5 5 4 4 4 4 5 3 3 2 3 4 9 3 3 4 4 5 3 3 5 6 4 5 7 5 4 4 5 5 5 4 4 4 5 6 6 5 3 4 6 5 5 2 1 2 4 2 2 5 7 6 7 8 7 8 10 10 10 13 13 13 13 14 16
30 30 30 30 27 25 25 16 6 12 16 5 1 10 15 15 15 11 4 1 3 5 4 3 2 2 2 2 3 3 2 1 2 3 4 9 6 3 2 2 4 3 5 5 6 4 7 7 3 3 5 5 5 6 5 5 3 5 7 9 7 5 7 8 4 4 2 4 4 4 2 5 4 8 7 6 8 9 8 11 13 11 11 12 11 13 14 14
31 30 29 28 25 25 21 6 6 17 13 1 5 13 13 14 15 9 3 3 3 4 1 1 1 1 1 1 1 2 4 1 4 2 3 7 6 4 2 1 1 3 6 4 4 3 5 5 5 5 6 6 6 7 5 6 3 5 6 7 8 8 8 8 4 2 2 5 5 5 5 4 3 5 8 7 10 11 9 11 14 12 12 12 12 13 13 13
30 29 28 25 22 22 13 4 11 15 3 2 10 14 13 15 13 5 2 4 3 3 0 1 1 1 1 1 2 4 2 4 3 1 2 4 2 3 3 2 0 1 2 3 2 3 3 2 4 6 6 6 6 6 7 7 5 6 5 7 7 8 8 9 6 5 5 3 2 0 3 1 3 4 7 8 8 9 11 13 14 14 14 14 13 13 14 14
29 27 26 23 20 17 9 8 12 7 1 6 13 14 15 14 8 3 3 2 2 2 0 1 1 0 1 1 2 4 3 3 2 0 1 4 3 4 3 4 5 4 1 5 3 5 2 2 5 6 4 4 5 7 8 8 6 10 7 6 6 7 7 7 6 4 3 2 0 3 2 2 4 4 4 8 8 10 15 17 16 15 15 15 14 14 15 15
28 25 23 22 19 10 5 7 8 4 5 11 14 16 16 9 4 4 2 1 1 2 1 1 2 1 2 1 1 2 1 0 2 2 1 6 9 7 2 4 5 5 2 4 4 5 2 4 6 6 4 5 7 10 8 10 9 10 5 4 4 4 3 3 4 4 2 3 4 7 5 3 5 3 4 7 7 11 15 17 16 15 15 15 15 15 15 14
25 22 21 22 16 5 3 8 8 5 9 12 16 19 12 3 4 4 2 1 1 2 1 2 2 1 1 3 2 3 1 0 0 2 3 5 12 11 2 0 5 4 1 1 3 4 3 3 3 4 4 6 8 9 7 12 13 7 0 3 3 1 2 2 2 3 4 1 6 9 9 6 4 4 4 7 11 16 16 13 13 14 15 16 15 15 15 14
23 20 19 17 12 4 3 5 5 7 11 14 18 15 5 3 3 4 2 1 2 3 3 2 2 1 2 4 1 1 1 2 3 4 5 5 10 12 7 5 4 3 3 3 3 3 4 2 1 1 0 1 3 5 4 7 12 6 1 1 1 3 3 3 3 3 3 4 7 7 6 4 3 5 5 10 15 18 17 14 14 17 17 16 15 15 15 14
22 18 13 11 10 6 4 3 6 10 12 15 15 7 4 3 3 2 1 3 2 3 3 3 2 1 0 3 3 2 3 4 5 7 6 4 6 8 7 5 3 2 3 1 2 3 3 1 2 3 3 6 4 3 5 4 1 4 3 3 1 2 1 1 2 1 4 5 5 5 5 2 5 7 8 13 15 15 15 14 14 17 18 16 15 15 14 14
21 16 11 9 9 9 7 7 10 12 14 14 9 4 5 4 3 2 3 3 1 3 3 3 3 3 3 5 5 4 6 5 5 6 4 4 6 5 6 9 8 3 1 0 2 3 2 3 6 6 3 5 4 2 2 4 2 3 5 4 4 3 2 2 3 1 2 4 5 3 3 1 4 6 8 13 15 15 14 13 13 16 17 17 16 15 14 14
19 15 11 10 10 10 10 10 11 12 13 11 4 5 6 5 1 4 3 2 3 3 3 3 4 6 8 7 4 4 6 6 6 6 5 5 6 5 6 11 13 6 1 3 2 1 2 2 3 4 3 4 3 1 3 3 2 2 5 6 5 5 4 3 3 3 3 3 3 1 2 3 4 5 6 9 11 10 10 11 12 13 14 15 14 13 14 14
17 14 11 10 9 8 6 6 8 8 7 5 5 6 6 3 3 3 2 4 3 3 4 5 6 7 7 6 6 6 4 4 5 8 8 7 5 5 5 7 11 7 3 3 1 1 2 3 4 2 2 3 5 4 3 2 3 3 2 5 3 3 4 2 3 5 4 1 1 1 2 4 5 3 6 7 8 6 6 9 10 12 12 12 11 13 14 15
14 12 8 8 7 4 3 4 5 5 3 5 6 6 4 2 3 2 2 4 2 4 4 6 8 7 5 5 6 8 5 4 4 5 6 6 6 8 6 4 8 9 4 2 1 2 2 3 5 5 3 5 6 4 3 5 2 2 2 1 4 4 3 3 2 1 3 2 1 2 2 4 3 2 9 14 13 11 8 6 9 12 11 12 13 14 15 16
15 11 6 8 8 4 3 4 4 4 3 6 7 5 2 2 3 3 4 4 4 4 4 5 5 4 3 4 5 8 7 4 5 4 3 4 4 8 8 4 6 9 6 2 1 2 2 3 4 6 4 6 7 3 4 8 4 1 2 4 5 2 2 3 1 2 4 1 3 1 1 3 4 2 9 16 17 16 15 10 9 10 9 12 14 14 16 17
15 10 4 11 13 6 3 3 4 4 4 6 7 5 2 3 4 4 4 4 3 5 7 4 2 3 1 1 4 8 7 3 4 4 3 3 3 5 7 4 6 9 9 4 2 1 2 2 4 6 5 6 7 5 4 8 8 3 2 3 3 3 2 1 2 2 2 2 3 3 1 3 4 4 9 14 14 16 17 14 11 8 10 13 14 15 16 16
13 5 2 16 17 6 3 3 3 5 6 5 5 3 1 3 6 7 5 4 4 5 6 3 2 3 2 1 2 6 8 5 4 3 3 3 1 3 7 5 5 9 9 5 3 1 2 2 3 6 8 6 5 6 4 7 9 5 3 5 4 2 2 1 1 3 2 3 3 2 3 2 1 4 7 10 12 14 15 15 14 11 11 14 14 13 14 14
9 3 2 20 18 3 3 4 4 6 5 4 3 1 2 3 5 9 9 8 6 3 3 3 2 2 3 3 2 3 6 6 5 4 3 4 1 2 8 6 6 9 8 5 5 2 2 3 2 6 8 5 2 3 3 4 6 6 7 7 6 4 2 1 1 1 3 3 3 2 2 2 5 2 6 9 10 12 13 13 14 13 10 14 15 13 14 14
5 3 5 23 19 1 2 4 4 4 3 3 3 2 4 3 3 8 10 9 7 4 3 3 4 4 2 3 4 3 4 4 5 4 3 4 2 1 5 5 5 7 6 5 6 4 2 2 1 4 5 3 2 3 4 3 3 6 6 6 6 5 4 2 1 3 2 2 2 4 3 4 5 2 6 8 8 11 14 14 13 14 12 9 14 14 14 15
5 3 7 25 19 6 6 6 3 2 3 3 3 2 4 4 3 6 7 7 6 5 4 4 4 5 3 3 3 3 4 4 4 4 3 3 3 1 5 6 6 4 2 3 3 3 1 2 3 2 3 3 5 4 6 6 5 8 7 6 5 4 5 3 1 3 4 3 2 2 3 4 4 4 8 8 9 11 14 15 14 14 15 11 8 11 11 13
3 0 10 25 18 11 10 6 3 4 4 2 2 4 5 4 3 5 5 6 5 4 5 5 4 4 5 4 3 3 4 4 4 4 3 2 3 3 7 8 8 5 3 3 3 3 2 2 3 2 3 4 4 4 6 8 7 6 5 6 6 4 4 1 3 2 1 4 5 2 2 2 4 7 8 7 9 12 13 16 17 15 16 16 9 3 6 5
0 3 6 21 23 16 8 3 2 4 3 3 5 6 5 4 4 6 6 6 4 2 3 4 4 3 3 4 4 4 3 3 3 3 2 2 2 5 7 9 8 5 3 3 3 2 2 1 3 3 4 5 5 5 6 6 6 3 3 5 6 6 7 4 1 1 1 3 5 1 1 3 7 8 8 8 11 13 13 14 16 16 17 18 15 9 5 4
2 0 4 12 22 16 5 2 4 4 3 4 6 5 4 3 4 5 6 5 4 3 3 2 3 3 3 4 5 7 6 4 2 2 2 2 2 4 6 8 7 4 5 7 6 2 1 2 3 3 2 1 1 2 3 4 4 3 4 6 6 7 8 4 3 3 2 4 6 0 1 7 9 8 10 11 12 13 14 15 16 16 17 17 17 16 14 12
2 3 2 7 11 8 3 1 4 4 3 3 4 5 5 3 3 4 6 5 3 4 4 2 2 3 5 5 5 6 7 6 3 2 2 2 2 3 4 6 6 6 8 11 10 4 2 2 2 5 4 3 4 3 3 3 3 4 7 8 7 6 5 3 3 2 1 4 5 2 1 7 10 10 12 12 12 12 12 15 16 16 16 16 16 15 15 15
2 2 2 2 3 4 4 5 4 4 2 3 3 3 5 5 3 4 5 3 2 3 4 4 5 4 5 5 4 4 5 5 5 3 2 2 2 3 5 4 5 9 10 9 7 4 4 3 3 4 4 3 5 4 4 3 2 4 7 9 8 7 5 3 1 2 1 4 5 4 2 7 9 9 10 11 12 10 10 12 12 12 13 13 14 16 17 17
2 1 1 0 1 2 3 3 4 6 6 4 3 2 4 6 5 3 3 3 3 4 3 3 5 5 5 4 4 3 3 4 4 2 1 2 2 3 6 4 4 7 8 6 4 3 4 1 1 3 2 1 3 3 3 1 2 3 4 7 9 8 5 3 4 4 3 2 6 8 7 6 6 7 9 10 11 9 10 10 9 11 13 13 15 17 18 17
2 1 2 1 2 2 1 3 4 7 7 5 3 3 3 5 4 2 2 2 4 4 3 3 2 3 5 5 4 3 2 3 2 2 0 1 2 1 3 3 3 5 6 4 4 3 3 0 0 3 3 3 4 4 2 3 3 4 4 6 8 8 7 6 6 5 4 6 9 9 8 6 4 6 7 8 8 7 8 9 11 13 15 14 15 16 16 15
2 1 2 2 3 2 3 4 4 6 6 4 3 3 2 3 3 3 2 3 2 3 3 4 3 3 5 5 5 3 2 5 3 1 1 2 2 1 1 1 2 4 6 3 3 3 2 1 1 4 3 4 5 4 4 3 3 4 5 6 7 8 7 5 5 5 5 6 8 7 5 4 4 7 6 6 7 7 10 13 13 13 14 15 15 15 15 15
3 2 0 3 3 4 4 3 3 4 4 4 3 3 3 3 3 2 1 1 3 2 1 5 4 3 4 5 5 2 3 4 3 2 2 2 1 2 1 1 2 2 4 2 2 2 2 1 2 4 3 4 4 5 6 5 4 4 4 5 5 5 5 3 3 2 1 4 6 4 2 3 5 7 7 6 8 10 12 12 11 10 13 15 15 14 14 14
6 2 2 4 3 4 3 2 3 4 2 2 3 3 3 4 5 3 2 2 0 2 3 6 6 3 4 5 4 3 5 4 3 2 3 3 2 3 3 2 2 1 1 1 1 1 2 2 1 3 2 3 4 5 6 5 5 4 3 2 2 4 5 4 2 3 3 2 2 1 1 3 5 7 7 7 9 10 10 9 9 9 11 13 13 13 13 13
Wind_Direction
352 356 353 350 352 355 357 358 359 360 360 359 358 356 354 354 354 353 349 346 343 338 337 330 314 297 288 290 292 292 298 289 280 250 232 259 249 224 204 188 173 154 162 177 170 157 156 173 186 180 165 170 208 204 197 212 196 163 201 190 237 233 216 232 203 154 126 148 161 167 185 142 135 140 145 161 63 70 72 50 47 75 107 123 129 143 149 147
350 352 350 349 349 350 352 355 356 357 357 355 356 353 353 355 354 354 349 347 344 340 342 336 323 305 291 291 289 291 300 294 282 254 246 259 232 197 186 176 166 155 158 170 169 159 155 172 179 171 155 161 197 185 181 189 186 194 189 189 234 216 225 242 169 134 123 157 158 151 162 145 143 140 155 165 111 110 100 79 110 108 114 123 135 149 149 142
348 348 348 348 347 347 349 351 353 354 354 354 352 349 351 353 355 356 351 348 345 343 347 344 331 311 299 292 291 300 299 307 287 257 267 241 193 177 172 171 164 160 163 170 173 169 168 171 165 157 149 179 194 187 192 179 181 201 195 230 248 226 258 287 164 133 125 149 146 140 140 137 146 128 145 157 123 131 138 146 146 132 136 137 147 154 146 143
346 346 346 346 345 345 347 348 351 352 351 351 350 348 347 348 353 357 353 349 346 347 354 358 347 324 310 296 301 317 304 322 277 252 332 194 177 166 167 171 167 170 170 168 175 174 169 160 155 154 154 188 213 201 216 209 182 183 199 223 247 213 248 267 184 112 124 144 139 138 134 134 149 122 140 145 129 166 180 173 159 147 148 146 155 156 147 147
345 344 344 344 342 343 344 345 348 350 348 347 348 347 344 344 348 355 356 353 349 346 354 6 5 355 334 317 324 325 326 51 257 251 336 165 169 164 167 171 172 179 171 158 169 171 164 147 147 162 163 190 198 200 222 217 211 225 220 232 256 255 253 245 149 120 129 134 131 143 144 136 140 129 153 153 153 197 173 184 170 151 152 152 158 154 149 151
343 342 342 342 341 342 342 342 346 347 345 344 345 344 343 342 341 350 357 355 352 339 335 352 359 355 334 332 334 327 28 175 273 244 211 158 166 164 165 168 172 179 174 160 162 163 159 135 145 175 175 198 204 215 228 203 212 249 247 239 246 245 254 220 142 141 137 142 153 156 140 128 137 136 156 165 170 154 103 149 175 154 152 152 156 154 153 156
341 341 340 340 340 341 341 342 344 344 343 342 342 341 341 339 338 343 351 355 352 336 313 322 335 333 317 328 330 1 66 258 262 195 190 158 166 166 160 163 164 174 179 171 161 159 156 148 160 173 169 205 216 223 240 220 215 236 257 255 238 226 229 194 153 160 152 158 160 143 138 151 161 148 157 180 165 121 96 117 160 151 151 154 159 158 157 158
340 340 338 339 340 341 342 341 342 342 341 340 339 339 337 337 337 337 344 351 347 336 305 306 324 314 291 307 334 2 313 251 203 176 188 159 166 169 161 163 165 171 178 180 176 162 157 166 174 167 178 216 227 225 224 230 230 228 245 258 246 223 208 178 154 162 160 158 141 138 155 165 160 133 153 177 141 125 112 131 153 146 154 160 161 160 157 157
340 339 337 339 340 341 342 341 342 341 340 339 337 336 334 334 335 333 337 341 337 331 303 306 321 306 256 247 64 335 259 216 175 182 184 164 167 172 171 172 174 175 176 183 181 167 169 180 187 178 181 222 244 258 226 216 230 224 237 251 252 236 190 168 158 164 156 149 148 148 152 146 134 118 133 164 137 131 122 145 159 152 163 165 162 163 158 159
339 338 338 340 340 341 342 343 343 341 340 339 336 334 332 332 332 330 330 334 330 308 286 311 317 288 225 214 101 133 215 174 179 187 182 172 169 172 179 181 181 181 177 180 182 184 188 183 188 187 182 258 241 255 239 218 236 242 248 264 262 245 186 166 160 160 141 148 169 149 136 133 140 135 149 165 150 140 134 155 166 160 169 166 162 166 161 163
338 338 338 340 341 342 344 344 343 342 341 337 334 332 332 331 329 325 323 327 324 292 231 309 321 219 189 136 122 190 216 168 182 184 183 181 176 179 187 190 188 185 178 173 190 199 200 184 176 183 211 265 276 281 261 235 280 285 272 293 283 227 167 163 156 157 138 152 180 132 114 113 136 238 179 155 155 155 147 157 168 171 174 168 163 166 164 166
337 337 339 340 342 344 345 345 344 343 341 337 334 331 332 332 327 319 315 317 314 260 193 354 88 160 154 88 210 215 169 116 180 190 194 189 185 189 194 195 195 192 186 177 200 205 202 198 195 228 223 10 320 286 279 275 308 294 271 305 317 89 141 166 148 157 153 148 168 132 105 149 205 222 158 149 156 159 150 154 169 178 181 176 167 165 168 168
337 338 339 341 343 345 346 345 345 344 341 338 335 333 334 331 322 309 300 303 292 212 175 131 135 151 124 269 236 216 184 350 276 220 210 202 197 198 199 200 200 199 196 191 201 203 198 202 218 261 304 351 304 264 296 296 296 279 255 134 79 53 137 182 134 157 165 138 170 158 109 212 208 202 156 152 160 157 154 164 174 178 185 187 175 167 171 171
337 338 340 342 344 345 346 346 347 346 342 339 336 336 336 326 312 293 283 278 238 188 169 150 158 146 123 260 258 234 282 312 258 224 213 205 199 197 200 203 204 203 203 201 198 195 196 203 229 288 302 272 260 299 315 303 302 271 263 70 118 106 201 189 149 164 165 145 178 181 331 227 201 189 167 159 164 161 162 174 179 180 186 193 180 171 173 173
339 340 341 344 345 345 347 347 348 346 343 341 340 341 336 321 299 275 267 243 200 176 166 156 171 148 71 277 275 274 273 284 224 217 213 204 190 182 197 197 203 203 205 206 195 178 189 193 212 269 269 254 249 297 313 319 335 333 260 318 60 198 201 181 177 181 170 154 185 197 308 246 188 173 168 163 169 167 169 177 181 183 191 197 183 172 175 175
340 342 343 344 345 346 346 347 349 347 344 342 344 345 340 328 310 250 215 187 170 162 154 137 178 167 82 282 295 313 225 213 218 214 212 208 199 198 193 186 196 202 206 209 203 198 184 177 182 206 237 265 237 250 303 341 330 355 116 247 231 202 195 162 189 208 195 130 188 212 247 263 167 164 164 168 175 171 173 180 183 188 195 196 183 174 177 174
340 343 345 345 345 345 346 347 349 347 344 345 349 352 355 6 61 121 126 136 144 143 127 111 160 172 270 284 310 329 271 255 239 218 207 208 210 206 174 164 187 194 201 208 204 215 189 175 194 199 230 250 210 184 270 290 281 323 1 265 256 172 159 161 172 209 220 149 198 213 231 253 178 162 167 174 179 175 178 184 185 188 194 195 184 177 179 177
339 343 346 345 344 344 345 347 349 347 343 348 354 359 36 64 99 113 111 118 121 120 97 92 134 120 262 285 306 295 298 283 238 215 202 201 209 198 159 157 172 154 157 199 186 191 186 184 194 228 271 231 196 145 178 229 204 205 339 33 306 338 130 182 168 185 197 216 219 206 225 245 208 160 172 178 180 181 184 186 186 187 190 193 185 180 181 182
340 344 345 343 342 342 342 345 348 346 343 350 358 13 75 76 102 108 112 124 116 128 227 195 168 127 224 268 287 286 304 291 216 199 198 194 200 192 157 151 137 122 129 145 178 178 171 147 166 216 241 214 202 169 183 211 174 168 177 149 265 311 277 217 230 188 184 200 224 206 216 229 209 172 177 179 180 185 189 188 188 188 189 192 187 184 183 184
342 344 343 341 340 338 339 343 346 346 346 353 358 19 76 41 55 30 75 163 197 220 240 211 186 256 289 274 286 295 313 301 226 191 185 182 173 167 119 104 110 108 140 145 187 193 153 167 214 216 212 202 208 188 192 217 205 205 265 274 266 281 275 239 244 205 180 193 226 215 218 219 204 187 181 177 181 189 192 189 192 191 189 191 190 188 185 186
343 344 342 339 337 336 336 339 343 344 350 358 2 24 109 2 4 315 314 283 246 223 231 228 200 237 265 261 276 296 333 323 262 259 182 175 152 145 289 60 114 145 192 156 159 136 141 198 228 224 204 204 216 194 192 226 242 254 260 277 288 253 263 267 257 220 180 193 236 223 226 228 204 190 182 175 184 194 193 188 191 192 189 191 191 190 187 185
344 345 341 338 335 334 333 336 341 342 353 7 17 45 193 339 336 286 289 309 282 227 215 237 223 247 258 259 266 266 297 292 295 308 178 155 131 152 175 83 134 196 218 139 116 127 188 228 237 230 203 205 241 221 202 227 242 250 244 261 277 239 283 292 279 258 183 196 255 219 222 240 176 182 190 186 193 199 196 192 192 190 189 190 192 190 187 183
345 344 341 337 334 332 331 334 338 345 355 3 16 23 354 354 352 318 292 289 289 260 208 221 208 241 262 262 260 228 172 224 253 302 186 144 132 171 138 111 155 186 169 146 145 153 197 245 239 227 203 199 248 255 227 241 257 244 232 240 248 189 88 286 289 321 165 185 280 159 184 224 148 171 201 198 201 202 201 202 198 194 194 194 192 189 187 185
344 343 341 337 334 331 330 332 339 355 350 344 335 359 358 358 0 351 343 229 291 293 226 205 190 214 242 259 243 153 154 210 176 277 186 141 129 156 147 149 148 152 186 170 153 161 231 253 230 207 206 200 234 261 238 230 258 251 230 227 229 175 178 225 280 348 35 308 318 110 82 286 175 179 204 195 199 207 203 204 204 203 202 199 195 193 192 190
343 343 339 338 336 330 329 333 351 353 345 330 319 350 355 356 357 358 2 75 317 291 235 205 207 222 243 258 235 178 138 219 211 240 172 149 149 137 147 156 130 181 213 167 146 184 251 251 195 185 213 199 219 252 230 195 231 272 243 222 212 201 217 232 264 333 343 280 255 137 83 288 205 187 195 174 191 205 201 204 207 206 201 198 197 197 197 194
342 340 338 339 337 331 333 343 346 343 341 330 348 343 347 351 353 360 25 57 341 287 255 129 189 206 267 244 215 105 75 308 254 224 157 158 152 112 119 170 82 197 202 164 150 201 252 234 183 195 213 200 211 243 228 178 194 268 240 201 196 205 228 245 233 187 219 252 245 174 187 266 278 207 193 174 192 200 199 210 213 207 201 199 199 197 197 196
340 339 339 338 340 338 334 309 326 337 337 320 337 336 339 345 350 11 65 43 352 286 289 292 247 137 233 194 122 94 109 267 279 96 150 155 132 61 107 190 168 187 194 113 134 227 240 216 198 206 208 200 211 238 223 170 167 251 222 156 170 196 219 236 216 193 219 241 338 171 162 170 297 239 185 170 187 200 209 217 214 209 205 201 199 197 196 196
338 340 340 336 339 334 306 292 321 332 247 319 328 330 335 341 352 68 88 54 350 309 185 267 295 302 273 222 112 117 188 231 114 268 317 87 40 47 115 201 177 180 199 109 156 253 260 160 197 198 191 202 217 231 213 162 187 250 233 161 170 190 206 216 195 198 214 119 53 259 142 126 277 279 158 168 187 205 216 219 213 208 205 202 200 198 198 197
340 343 341 334 335 332 293 290 298 294 318 324 328 330 331 340 21 73 79 84 13 338 259 318 331 293 328 22 53 58 3 81 127 247 333 54 25 34 154 207 154 165 197 126 181 247 243 197 182 157 167 210 227 236 211 170 205 248 234 199 207 184 194 193 155 153 117 108 213 221 183 177 268 287 150 167 198 216 222 221 214 207 203 202 201 197 197 197
344 347 339 330 333 346 307 290 280 310 336 330 328 327 329 8 66 64 49 79 21 319 272 324 311 276 55 70 16 1 46 5 114 34 36 40 25 27 22 214 94 130 156 57 237 249 274 257 177 146 185 209 224 237 217 195 213 238 187 215 238 127 82 68 78 97 108 232 243 215 195 190 253 277 182 178 203 213 218 220 209 206 204 200 199 196 195 195
347 347 336 326 328 325 285 295 319 343 335 327 327 329 348 47 64 89 78 39 3 327 328 312 281 282 100 112 82 333 90 356 351 53 44 24 31 30 18 9 33 55 34 354 284 308 335 310 210 241 346 44 251 252 260 226 217 216 162 143 270 321 36 50 2 51 135 250 259 215 186 172 227 263 224 211 215 212 214 215 203 203 204 199 198 195 193 194
352 349 337 324 319 307 279 299 333 330 323 325 331 349 72 41 29 81 324 338 1 324 316 292 278 308 256 100 56 9 77 33 25 71 69 35 43 48 43 22 355 35 36 292 276 343 332 260 308 323 27 37 11 303 317 323 176 169 168 124 154 282 2 137 284 195 180 251 258 182 135 146 242 253 229 223 229 224 218 216 206 203 203 200 197 194 192 193
357 353 344 325 313 309 306 313 319 315 316 326 341 45 85 72 38 353 321 343 327 277 290 285 298 351 51 62 24 9 55 41 24 61 67 56 59 52 42 23 16 51 120 301 19 8 313 295 347 359 358 16 42 65 322 334 27 155 171 146 163 175 122 205 237 204 203 253 261 196 150 201 266 267 231 219 227 226 219 215 208 204 202 200 197 192 192 193
358 351 339 319 313 317 317 318 315 309 317 333 23 71 62 75 21 335 341 297 260 295 325 317 339 25 47 46 5 7 54 40 23 49 44 44 47 15 10 17 14 18 31 34 48 64 131 224 337 19 338 335 24 60 222 227 282 253 186 147 152 164 152 195 207 177 203 241 278 262 183 176 205 252 244 233 242 237 224 221 211 205 205 199 194 191 191 194
355 346 337 324 325 330 325 319 309 307 331 12 69 70 59 56 303 330 340 291 282 325 339 9 35 42 35 19 359 6 59 66 36 55 57 57 52 6 354 3 4 5 15 42 29 1 99 218 280 309 261 340 4 322 278 212 234 262 183 120 120 187 161 155 183 177 173 150 353 214 210 210 212 270 341 331 310 298 257 237 218 211 204 190 189 192 192 196
352 349 347 338 343 350 337 322 304 309 7 64 67 59 67 49 315 315 316 312 317 310 326 22 36 39 19 1 358 355 19 69 45 54 59 61 54 16 359 338 353 8 18 42 35 11 54 241 307 337 314 358 358 309 19 56 221 258 43 52 279 262 141 117 232 239 89 93 272 211 221 294 292 343 2 359 350 344 329 286 238 223 201 186 193 195 194 196
352 350 347 347 355 350 334 337 326 344 35 76 74 61 49 14 332 307 312 316 314 333 32 47 22 31 20 3 1 344 350 33 33 43 44 35 36 5 352 324 341 4 1 355 120 57 58 253 321 12 340 320 332 304 47 41 25 80 54 296 292 268 138 111 147 356 48 114 276 311 147 338 354 333 341 355 356 343 336 323 276 244 203 194 203 198 197 198
351 350 354 2 356 323 318 3 352 10 51 69 74 75 44 9 354 337 330 330 344 22 52 67 25 37 29 15 13 353 359 16 6 36 54 30 28 357 356 334 331 351 346 355 66 32 21 288 308 9 347 307 349 9 1 2 9 78 171 297 5 121 186 11 121 144 74 161 269 319 55 40 22 331 329 347 349 335 330 330 313 271 211 204 210 203 200 199
3 11 20 5 1 331 329 4 350 29 63 65 69 76 32 26 14 1 354 13 37 40 44 53 44 44 31 51 25 5 29 46 18 43 57 23 17 358 8 350 319 338 338 3 53 305 5 45 287 332 342 328 12 33 4 335 348 17 44 9 14 121 179 307 181 157 132 164 215 299 15 29 293 294 319 326 334 339 335 332 326 298 234 210 209 204 198 196
14 66 349 356 3 338 305 347 10 39 64 72 80 70 14 33 12 7 16 33 46 52 49 39 31 52 33 22 34 28 40 46 36 56 46 11 13 353 8 360 325 334 333 3 45 18 18 54 289 307 340 355 24 25 357 318 338 12 33 28 6 345 349 289 257 107 118 145 172 143 62 292 254 279 326 320 333 347 343 337 333 320 273 223 210 202 194 194
20 84 334 353 4 345 288 12 36 42 62 49 45 46 40 51 11 5 17 30 47 60 67 68 53 57 48 24 29 27 45 52 38 57 62 22 29 348 357 350 319 327 342 5 22 19 21 60 23 327 349 8 300 318 345 344 45 64 57 32 10 358 20 41 326 343 27 77 172 152 136 259 257 341 337 326 348 355 354 353 345 341 329 264 220 204 194 194
39 79 342 357 13 72 71 46 8 26 73 52 30 30 41 56 34 5 5 21 47 46 33 53 53 43 40 36 33 30 60 64 23 43 90 40 34 350 321 331 329 329 33 27 326 319 27 92 69 357 303 299 278 305 23 44 74 75 62 35 14 21 43 53 298 314 346 348 283 146 124 236 254 4 350 344 5 3 5 6 358 354 351 328 257 212 203 202
52 57 353 8 32 88 78 48 357 30 52 30 45 44 33 43 31 16 16 25 38 32 25 32 33 41 42 29 35 51 62 57 22 40 97 43 17 330 315 336 350 352 51 38 317 316 14 55 48 357 301 322 307 314 25 45 58 52 32 19 12 12 19 350 233 243 322 353 342 3 106 250 301 352 354 358 12 13 17 13 6 5 3 353 339 219 192 196
91 230 337 15 40 72 82 76 70 61 48 32 60 55 34 39 40 36 39 32 27 41 48 27 12 41 51 30 49 57 59 78 41 17 64 75 325 304 323 346 357 3 36 26 343 337 5 39 54 30 357 358 354 340 350 15 38 39 340 355 360 350 352 345 310 91 102 6 349 341 174 289 308 332 351 3 11 14 19 20 16 15 12 6 6 18 47 58
33 244 274 5 33 54 84 145 122 100 64 51 58 47 32 39 34 39 51 44 33 57 77 42 8 46 45 34 54 45 40 80 89 354 37 46 302 298 338 349 353 14 32 19 14 30 64 63 86 85 69 19 313 320 311 323 352 354 326 344 350 347 356 9 21 32 45 340 335 66 174 299 305 335 356 1 9 9 11 22 27 22 18 16 16 22 27 28
56 36 306 340 16 38 46 50 94 96 73 72 60 25 28 46 9 20 51 53 26 44 64 34 359 48 37 35 60 47 34 51 69 72 71 17 313 297 334 348 355 16 30 23 19 45 93 38 73 124 131 172 201 216 254 286 321 324 324 335 337 333 348 47 59 31 44 340 317 197 118 320 318 345 356 355 5 8 5 16 27 26 22 20 17 20 28 28
86 56 355 331 349 15 24 18 41 63 61 98 86 21 23 46 17 5 35 46 18 48 59 19 15 52 48 40 62 47 23 34 45 61 71 7 320 302 330 360 6 9 23 22 10 48 88 27 28 91 116 183 204 234 272 285 301 310 321 327 320 313 325 14 31 220 136 23 299 257 1 340 318 342 358 352 354 3 3 2 14 26 25 23 21 19 23 27
77 105 276 154 17 16 31 14 35 55 45 51 73 46 39 50 44 23 16 8 15 47 77 30 24 67 81 78 95 65 22 36 32 25 14 3 355 335 344 352 348 5 23 13 352 64 101 85 16 66 54 256 239 263 289 328 321 310 317 315 311 309 300 278 250 222 155 127 252 273 313 315 309 347 7 0 353 1 6 354 359 22 24 20 24 24 21 21
66 70 307 358 82 86 36 1 38 57 42 32 48 45 50 60 51 19 352 17 15 18 76 91 37 65 78 81 101 88 58 75 33 321 249 27 17 34 10 336 320 3 29 14 352 59 101 149 149 87 32 325 294 296 348 27 340 314 309 298 298 299 282 259 248 230 205 218 242 266 286 283 318 2 10 12 0 355 11 11 11 21 22 20 22 23 20 18
50 56 319 18 57 37 11 5 39 60 36 25 48 36 45 67 43 354 9 84 77 353 39 104 110 74 74 76 84 88 149 151 143 259 188 52 1 325 43 280 278 348 14 18 358 35 74 341 14 87 46 323 305 326 354 351 309 294 292 282 283 294 293 275 258 246 226 239 255 265 273 280 331 360 10 21 12 9 24 26 21 18 18 20 23 21 17 15
3 266 301 88 53 1 4 10 41 67 37 11 31 20 14 24 4 342 1 74 147 155 123 141 134 70 53 54 53 35 236 176 147 235 206 161 213 213 210 220 208 340 358 7 344 11 76 354 1 66 53 302 303 339 336 327 320 292 272 268 268 290 308 297 282 285 220 238 259 272 300 306 325 348 4 17 23 28 28 24 21 17 17 21 21 16 13 10
8 312 17 94 80 358 7 30 35 68 61 339 352 20 23 2 356 36 58 333 311 146 167 156 134 80 50 41 18 278 240 208 184 219 207 187 212 216 217 206 153 99 308 197 333 328 124 103 19 74 72 283 292 327 331 343 345 299 263 281 280 289 305 296 307 10 11 305 261 260 6 320 330 353 2 12 29 34 28 24 21 12 16 22 17 12 11 7